Ashtabula, OH

7:47 PM EST on November 11, 2019 (GMT -0500)
Ashtabula County

Weather History for KHZY - September, 2019

Change the Weather History Date:

Thursday, September 19, 2019

  Actual Average (KGKJ) Record (KGKJ)
Temperature  
Mean Temperature 64 °F -  
Max Temperature 77 °F 71 °F 89 °F (1955)
Min Temperature 53 °F 49 °F 30 °F (1959)
Degree Days  
Heating Degree Days 1    
Growing Degree Days 14 (Base 50)    
Moisture  
Dew Point 52 °F    
Average Humidity 69    
Maximum Humidity 93    
Minimum Humidity 50    
Precipitation  
Precipitation 0.00 in - - ()
Sea Level Pressure  
Sea Level Pressure 30.22 in    
Wind  
Wind Speed 6 mph (SE)    
Max Wind Speed 14 mph    
Max Gust Speed 18 mph    
Visibility 10 miles    
Events      
Averages and records for this station are not official NWS values.
T = Trace of Precipitation, MM = Missing Value Source: NWS Daily Summary

Daily Weather History Graph

Daily Weather History Graph

Search for Another Location

Airport or City:

Astronomy

Sep. 19, 2019 Rise Set
Actual Time 7:06 AM EDT 7:25 PM EDT
Civil Twilight 6:39 AM EDT 7:53 PM EDT
Nautical Twilight 6:06 AM EDT 8:26 PM EDT
Astronomical Twilight 5:32 AM EDT 8:59 PM EDT
Moon 10:29 PM EDT (9/19) 12:12 PM EDT (9/19)
Length of Visible Light 13h 14m
Length of Day
12h 18m
Waning Gibbous, 74% of the Moon is Illuminated
Sep 19
Waning Gibbous
Sep 21
Last Quarter
Sep 28
New
Oct 5
First Quarter
Oct 13
Full

Hourly Weather History & Observations

Time (EDT) Temp. Dew Point Humidity Pressure Visibility Wind Dir Wind Speed Gust Speed Precip Events Conditions
12:53 AM 53.1 °F 51.1 °F 93% 30.25 in 10.0 mi Calm Calm - N/A   Clear
1:53 AM 55.9 °F 50.0 °F 80% 30.25 in 10.0 mi Calm Calm - N/A   Clear
2:53 AM 54.0 °F 48.0 °F 80% 30.24 in 10.0 mi SE 5.8 mph - N/A   Clear
3:53 AM 54.0 °F 48.0 °F 80% 30.24 in 10.0 mi SE 6.9 mph - N/A   Clear
4:53 AM 54.0 °F 48.0 °F 80% 30.23 in 10.0 mi SE 6.9 mph - N/A   Clear
5:53 AM 54.0 °F 46.9 °F 77% 30.22 in 10.0 mi SE 5.8 mph - N/A   Clear
6:53 AM 53.1 °F 46.9 °F 80% 30.24 in 10.0 mi ESE 8.1 mph - N/A   Clear
7:53 AM 53.1 °F 48.0 °F 83% 30.26 in 10.0 mi SE 6.9 mph - N/A   Clear
8:53 AM 57.9 °F 50.0 °F 75% 30.26 in 10.0 mi SE 5.8 mph - N/A   Clear
9:53 AM 63.0 °F 51.1 °F 65% 30.26 in 10.0 mi SSE 13.8 mph - N/A   Clear
10:53 AM 66.0 °F 52.0 °F 60% 30.25 in 10.0 mi SSE 13.8 mph - N/A   Clear
11:53 AM 69.1 °F 53.1 °F 57% 30.24 in 10.0 mi SSE 12.7 mph - N/A   Clear
12:53 PM 72.0 °F 55.0 °F 55% 30.23 in 10.0 mi South 9.2 mph - N/A   Clear
1:53 PM 75.0 °F 55.9 °F 51% 30.22 in 10.0 mi SSE 12.7 mph 18.4 mph N/A   Clear
2:53 PM 75.9 °F 57.0 °F 52% 30.21 in 10.0 mi South 9.2 mph - N/A   Clear
3:53 PM 75.9 °F 55.9 °F 50% 30.20 in 10.0 mi South 11.5 mph - N/A   Clear
4:53 PM 75.0 °F 55.9 °F 51% 30.18 in 10.0 mi SE 10.4 mph - N/A   Clear
5:53 PM 73.0 °F 55.0 °F 53% 30.18 in 10.0 mi SE 9.2 mph - N/A   Clear
6:53 PM 71.1 °F 55.0 °F 57% 30.19 in 10.0 mi SE 6.9 mph - N/A   Clear
7:53 PM 66.9 °F 55.9 °F 68% 30.19 in 10.0 mi SE 5.8 mph - N/A   Clear
8:53 PM 64.0 °F 55.0 °F 73% 30.20 in 10.0 mi SE 6.9 mph - N/A   Clear
9:53 PM 63.0 °F 54.0 °F 72% 30.20 in 10.0 mi SE 8.1 mph - N/A   Clear
10:53 PM 61.0 °F 53.1 °F 75% 30.20 in 10.0 mi SE 4.6 mph - N/A   Clear
11:53 PM 60.1 °F 53.1 °F 78% 30.20 in 10.0 mi SE 4.6 mph - N/A   Clear